• în Republica Moldova
  • Lista ţărilor
  • Pe 7 zile
  • Temperatura apei
  • Hartă satelitară
  • Meteo pe hartă
  • Widget-uri
  • user-avatar
    Intrare

    Meteo pe oră la Mezheninka

    Astăzi, 17 Noiembrie, Sâmbătă

    Timp Temperatura Precipitaţii Vânt Presiune Umiditate
    00:00 -4°C° 0 mm 2 m/s 758 mmHg 87%
    01:00 -4°C° 0 mm 2 m/s 758 mmHg 86%
    02:00 -4°C° 0 mm 2 m/s 758 mmHg 86%
    03:00 -4°C° 0 mm 2 m/s 757 mmHg 86%
    04:00 -4°C° 0 mm 2 m/s 757 mmHg 85%
    05:00 -4°C° 0 mm 2 m/s 757 mmHg 85%
    06:00 -4°C° 0 mm 2 m/s 756 mmHg 84%
    07:00 -5°C° 0 mm 3 m/s 756 mmHg 84%
    08:00 -5°C° 0 mm 3 m/s 755 mmHg 83%
    09:00 -4°C° 0 mm 3 m/s 755 mmHg 81%
    10:00 -2°C° 0 mm 3 m/s 755 mmHg 78%
    11:00 -2°C° 0 mm 4 m/s 754 mmHg 75%
    12:00 -2°C° 0 mm 4 m/s 753 mmHg 76%
    13:00 -2°C° 0 mm 4 m/s 753 mmHg 77%
    14:00 -1°C° 0 mm 4 m/s 752 mmHg 77%
    15:00 -2°C° 0.2 mm 4 m/s 751 mmHg 80%
    16:00 -2°C° 0.2 mm 4 m/s 751 mmHg 83%
    17:00 -2°C° 0.2 mm 4 m/s 750 mmHg 87%
    18:00 -2°C° 0.1 mm 4 m/s 749 mmHg 88%
    19:00 -2°C° 0.1 mm 4 m/s 748 mmHg 90%
    20:00 -2°C° 0.1 mm 4 m/s 748 mmHg 91%
    21:00 -1°C° 0.1 mm 4 m/s 747 mmHg 92%
    22:00 0°C° 0.1 mm 3 m/s 746 mmHg 92%
    23:00 0°C° 0.1 mm 3 m/s 745 mmHg 93%

    Mâine, 18 Noiembrie, Duminică

    Timp Temperatura Precipitaţii Vânt Presiune Umiditate
    00:00 0°C° 0.1 mm 3 m/s 745 mmHg 93%
    01:00 -1°C° 0.1 mm 4 m/s 744 mmHg 94%
    02:00 -1°C° 0.1 mm 4 m/s 743 mmHg 94%
    03:00 0°C° 0.3 mm 3 m/s 743 mmHg 94%
    04:00 0°C° 0.3 mm 3 m/s 742 mmHg 95%
    05:00 0°C° 0.3 mm 3 m/s 741 mmHg 95%
    06:00 0°C° 0.1 mm 3 m/s 741 mmHg 95%
    07:00 0°C° 0.1 mm 3 m/s 741 mmHg 96%
    08:00 +1°C° 0.1 mm 2 m/s 741 mmHg 96%
    09:00 +2°C° 0.2 mm 2 m/s 741 mmHg 96%
    10:00 +2°C° 0.2 mm 2 m/s 741 mmHg 95%
    11:00 +2°C° 0.2 mm 2 m/s 741 mmHg 95%
    12:00 +2°C° 0.1 mm 2 m/s 741 mmHg 95%
    13:00 +2°C° 0.1 mm 2 m/s 741 mmHg 95%
    14:00 +2°C° 0.1 mm 2 m/s 741 mmHg 96%
    15:00 +2°C° 0.1 mm 2 m/s 741 mmHg 95%
    16:00 +1°C° 0.1 mm 3 m/s 741 mmHg 95%
    17:00 +1°C° 0.1 mm 3 m/s 742 mmHg 94%
    18:00 +1°C° 0.1 mm 3 m/s 742 mmHg 94%
    19:00 0°C° 0.1 mm 3 m/s 742 mmHg 93%
    20:00 0°C° 0.1 mm 3 m/s 742 mmHg 92%
    21:00 0°C° 0.1 mm 3 m/s 743 mmHg 92%
    22:00 0°C° 0.1 mm 3 m/s 743 mmHg 92%
    23:00 -1°C° 0.1 mm 4 m/s 743 mmHg 91%

    Poimâine, 19 Noiembrie, Luni

    Timp Temperatura Precipitaţii Vânt Presiune Umiditate
    00:00 -1°C° 0.1 mm 4 m/s 744 mmHg 91%
    01:00 -1°C° 0.1 mm 4 m/s 744 mmHg 91%
    02:00 0°C° 0.1 mm 3 m/s 745 mmHg 91%
    03:00 0°C° 0 mm 3 m/s 745 mmHg 91%
    04:00 0°C° 0 mm 3 m/s 745 mmHg 91%
    05:00 0°C° 0 mm 3 m/s 746 mmHg 91%
    06:00 0°C° 0.1 mm 3 m/s 746 mmHg 91%
    07:00 0°C° 0.1 mm 3 m/s 747 mmHg 91%
    08:00 -1°C° 0.1 mm 4 m/s 747 mmHg 91%
    09:00 -1°C° 0 mm 4 m/s 747 mmHg 90%
    10:00 -1°C° 0 mm 4 m/s 748 mmHg 89%
    11:00 -1°C° 0 mm 4 m/s 748 mmHg 88%
    12:00 0°C° 0 mm 3 m/s 748 mmHg 88%
    13:00 0°C° 0 mm 3 m/s 749 mmHg 88%
    14:00 0°C° 0 mm 3 m/s 749 mmHg 89%
    15:00 0°C° 0 mm 3 m/s 749 mmHg 90%
    16:00 0°C° 0 mm 3 m/s 749 mmHg 91%
    17:00 -1°C° 0 mm 3 m/s 749 mmHg 92%
    18:00 -1°C° 0.1 mm 3 m/s 749 mmHg 92%
    19:00 -1°C° 0.1 mm 3 m/s 749 mmHg 92%
    20:00 -1°C° 0.1 mm 2 m/s 749 mmHg 93%
    21:00 -1°C° 0 mm 2 m/s 750 mmHg 93%
    22:00 -1°C° 0 mm 2 m/s 750 mmHg 93%
    23:00 -1°C° 0 mm 2 m/s 750 mmHg 94%

    20 Noiembrie, Marţi

    Timp Temperatura Precipitaţii Vânt Presiune Umiditate
    00:00 -1°C° 0 mm 2 m/s 750 mmHg 93%
    01:00 -1°C° 0 mm 2 m/s 750 mmHg 93%
    02:00 -1°C° 0 mm 2 m/s 750 mmHg 93%
    03:00 -2°C° 0 mm 2 m/s 750 mmHg 93%
    04:00 -2°C° 0 mm 2 m/s 750 mmHg 94%
    05:00 -2°C° 0 mm 2 m/s 749 mmHg 94%
    06:00 -2°C° 0 mm 2 m/s 749 mmHg 94%
    07:00 -2°C° 0 mm 2 m/s 749 mmHg 95%
    08:00 -2°C° 0 mm 2 m/s 749 mmHg 95%
    09:00 -2°C° 0 mm 2 m/s 749 mmHg 93%
    10:00 -2°C° 0 mm 2 m/s 749 mmHg 91%
    11:00 -1°C° 0 mm 2 m/s 749 mmHg 89%
    12:00 +1°C° 0 mm 1 m/s 748 mmHg 88%
    13:00 +1°C° 0 mm 1 m/s 748 mmHg 88%
    14:00 +1°C° 0 mm 1 m/s 747 mmHg 88%
    15:00 0°C° 0 mm 1 m/s 747 mmHg 89%
    16:00 0°C° 0 mm 1 m/s 747 mmHg 91%
    17:00 0°C° 0 mm 1 m/s 747 mmHg 92%
    18:00 -1°C° 0 mm 1 m/s 746 mmHg 93%
    19:00 -1°C° 0 mm 1 m/s 746 mmHg 93%
    20:00 -2°C° 0 mm 0 m/s 746 mmHg 93%
    21:00 -1°C° 0 mm 1 m/s 746 mmHg 94%
    22:00 -2°C° 0 mm 1 m/s 746 mmHg 94%
    23:00 -2°C° 0 mm 1 m/s 746 mmHg 94%

    21 Noiembrie, Miercuri

    Timp Temperatura Precipitaţii Vânt Presiune Umiditate
    00:00 -2°C° 0 mm 1 m/s 745 mmHg 94%
    01:00 -2°C° 0 mm 1 m/s 745 mmHg 94%
    02:00 -2°C° 0 mm 1 m/s 745 mmHg 94%
    03:00 -2°C° 0 mm 1 m/s 745 mmHg 94%
    04:00 -2°C° 0 mm 1 m/s 745 mmHg 95%
    05:00 -2°C° 0 mm 1 m/s 745 mmHg 95%
    06:00 -2°C° 0 mm 1 m/s 745 mmHg 95%
    07:00 -4°C° 0 mm 2 m/s 745 mmHg 95%
    08:00 -4°C° 0 mm 2 m/s 745 mmHg 94%
    09:00 -4°C° 0 mm 2 m/s 745 mmHg 90%
    10:00 -3°C° 0 mm 2 m/s 746 mmHg 86%
    11:00 -2°C° 0 mm 2 m/s 746 mmHg 82%
    12:00 -2°C° 0 mm 2 m/s 746 mmHg 82%
    13:00 -2°C° 0 mm 2 m/s 746 mmHg 82%
    14:00 -2°C° 0 mm 2 m/s 746 mmHg 81%
    15:00 -3°C° 0 mm 2 m/s 746 mmHg 85%
    16:00 -3°C° 0 mm 2 m/s 746 mmHg 89%
    17:00 -4°C° 0 mm 2 m/s 746 mmHg 92%
    18:00 -4°C° 0 mm 2 m/s 746 mmHg 92%
    19:00 -4°C° 0 mm 2 m/s 747 mmHg 91%
    20:00 -4°C° 0 mm 2 m/s 747 mmHg 91%
    21:00 -4°C° 0 mm 2 m/s 747 mmHg 91%
    22:00 -4°C° 0 mm 2 m/s 747 mmHg 91%
    23:00 -2°C° 0 mm 1 m/s 747 mmHg 91%

    22 Noiembrie, Joi

    Timp Temperatura Precipitaţii Vânt Presiune Umiditate
    00:00 -2°C° 0 mm 1 m/s 747 mmHg 92%
    01:00 -2°C° 0 mm 1 m/s 747 mmHg 93%
    02:00 -2°C° 0 mm 1 m/s 747 mmHg 94%
    03:00 -3°C° 0 mm 1 m/s 747 mmHg 95%
    04:00 -3°C° 0 mm 1 m/s 747 mmHg 95%
    05:00 -3°C° 0 mm 1 m/s 747 mmHg 95%
    06:00 -3°C° 0 mm 1 m/s 747 mmHg 95%
    07:00 -3°C° 0 mm 1 m/s 747 mmHg 95%
    08:00 -4°C° 0 mm 1 m/s 748 mmHg 95%
    09:00 -3°C° 0 mm 1 m/s 748 mmHg 92%
    10:00 -2°C° 0 mm 1 m/s 748 mmHg 88%
    11:00 -1°C° 0 mm 1 m/s 748 mmHg 84%
    12:00 -3°C° 0 mm 2 m/s 748 mmHg 84%
    13:00 -3°C° 0 mm 2 m/s 748 mmHg 85%
    14:00 -3°C° 0 mm 2 m/s 748 mmHg 85%
    15:00 -4°C° 0 mm 2 m/s 748 mmHg 88%
    16:00 -4°C° 0 mm 2 m/s 748 mmHg 90%
    17:00 -4°C° 0 mm 2 m/s 748 mmHg 92%
    18:00 -4°C° 0 mm 2 m/s 747 mmHg 92%
    19:00 -4°C° 0 mm 2 m/s 747 mmHg 91%
    20:00 -4°C° 0 mm 2 m/s 747 mmHg 90%
    21:00 -5°C° 0 mm 2 m/s 747 mmHg 90%
    22:00 -5°C° 0 mm 2 m/s 747 mmHg 91%
    23:00 -5°C° 0 mm 2 m/s 747 mmHg 92%
    Arată mai mult